Location: Alafon
(8.4500°N, 4.2333°E)
Time: 07:43:14
(UTC+00:00)

Vanguard 1 Rocket - Visible Passes

Search period start: 24 July 2021 00:00
Search period end: 03 August 2021 00:00
Orbit: 650 x 4226 km, 34.3° (Epoch: 23 July)

Date Brightness Start Highest point End Pass type
(mag) Time Alt. Az. Time Alt. Az. Time Alt. Az.
24 Jul 11.5 03:53:17 10° S 04:05:13 15° SSE 04:17:30 10° SE visible
24 Jul 7.2 19:04:16 10° NW 19:08:40 61° NE 19:12:04 24° ESE visible
25 Jul 11.6 05:06:53 10° SSW 05:27:04 28° SSE 05:44:47 10° E visible
25 Jul 8.4 20:18:16 10° W 20:22:13 35° SW 20:22:13 35° SW visible
26 Jul 11.5 03:54:50 10° S 04:09:47 19° SSE 04:25:04 10° ESE visible
26 Jul 7.0 19:07:17 10° WNW 19:11:42 79° SW 19:15:05 25° SE visible
27 Jul 11.5 02:45:46 10° S 02:51:46 11° SSE 02:58:10 10° SE visible
27 Jul 11.5 05:08:30 10° SSW 05:30:31 34° SE 05:49:38 10° E visible
27 Jul 9.0 20:22:16 10° W 20:25:17 21° SW 20:25:17 21° SW visible
28 Jul 11.5 03:56:22 10° SSW 04:13:47 23° SSE 04:31:32 10° ESE visible
28 Jul 7.7 19:10:36 10° WNW 19:14:50 44° SSW 19:18:12 21° SSE visible
29 Jul 11.4 02:46:12 10° S 02:56:31 14° SSE 03:07:56 10° SE visible
29 Jul 11.4 05:10:14 10° SSW 05:33:35 42° SE 05:53:53 10° E visible
29 Jul 9.6 20:27:16 10° SW 20:28:25 12° SW 20:28:25 12° SW visible
30 Jul 11.4 03:58:00 10° SSW 04:17:18 29° SE 04:37:02 10° E visible
30 Jul 8.5 19:14:20 10° W 19:18:02 25° SSW 19:21:22 15° SSE visible
31 Jul 11.4 02:48:12 11° S 03:00:41 18° SSE 03:15:51 10° ESE visible
31 Jul 11.3 05:12:05 10° SSW 05:36:21 51° SE 05:57:40 10° ENE visible
01 Aug 11.3 03:59:44 10° SSW 04:20:23 36° SE 04:41:46 10° E visible
01 Aug 9.2 19:18:56 10° WSW 19:21:20 14° SSW 19:24:03 10° S visible
02 Aug 11.3 02:51:05 13° S 03:04:19 23° SE 03:22:24 10° E visible
02 Aug 11.1 05:14:05 10° SW 05:38:54 61° SE 06:01:04 10° ENE visible
